This is the latest recevied weather packets stored in our database for station/object K4GSL. If no packets are shown the sender has not sent any weather packets the latest 10 day(s).
| Time | Temp. | Humidity | Pressure | Rain* | Wind** | Luminosity | Snow |
|---|---|---|---|---|---|---|---|
| 1777762634 | 18.89° C | 74% | 1016.7 hPa | 0 mm | - | 251 W/m² | - |
| 1777762332 | 18.89° C | 72% | 1016.6 hPa | 0 mm | - | 327 W/m² | - |
| 1777762028 | 18.89° C | 73% | 1016.7 hPa | 0 mm | - | 251 W/m² | - |
| 1777761725 | 18.33° C | 75% | 1017 hPa | 0 mm | - | 249 W/m² | - |
| 1777761422 | 17.78° C | 77% | 1016.9 hPa | 0 mm | - | 262 W/m² | - |
| 1777761120 | 17.22° C | 78% | 1017.7 hPa | 0 mm | - | 119 W/m² | - |
| 1777760818 | 17.22° C | 78% | 1016.2 hPa | 0 mm | - | 94 W/m² | - |
| 1777760514 | 17.78° C | 76% | 1016.9 hPa | 0 mm | - | 106 W/m² | - |
| 1777760210 | 17.78° C | 75% | 1017.1 hPa | 0 mm | - | 168 W/m² | - |
| 1777759907 | 17.78° C | 75% | 1017.4 hPa | 0 mm | - | 225 W/m² | - |
| 1777759603 | 17.78° C | 75% | 1017 hPa | 0 mm | - | 237 W/m² | - |
| 1777759300 | 17.78° C | 74% | 1017.4 hPa | 0 mm | - | 246 W/m² | - |
| 1777758997 | 17.78° C | 74% | 1017.7 hPa | 0 mm | - | 246 W/m² | - |
| 1777758693 | 18.33° C | 73% | 1017.6 hPa | 0 mm | - | 207 W/m² | - |
| 1777758391 | 18.33° C | 73% | 1017.3 hPa | 0 mm | - | 207 W/m² | - |
| 1777758088 | 17.78° C | 72% | 1018 hPa | 0 mm | - | 334 W/m² | - |
| 1777757785 | 17.78° C | 74% | 1018 hPa | 0 mm | - | 426 W/m² | - |
| 1777757482 | 17.22° C | 74% | 1017.8 hPa | 0 mm | - | 353 W/m² | - |
| 1777757181 | 17.22° C | 75% | 1017.8 hPa | 0 mm | - | 345 W/m² | - |
| 1777756879 | 17.22° C | 75% | 1017.7 hPa | 0 mm | - | 374 W/m² | - |
| 1777756574 | 17.22° C | 75% | 1018 hPa | 0 mm | - | 292 W/m² | - |
| 1777756272 | 17.22° C | 75% | 1018.3 hPa | 0 mm | - | 370 W/m² | - |
| 1777755969 | 17.22° C | 75% | 1018 hPa | 0 mm | - | 370 W/m² | - |
| 1777755666 | 17.78° C | 74% | 1018.1 hPa | 0 mm | - | 347 W/m² | - |
| 1777755363 | 17.78° C | 75% | 1018 hPa | 0 mm | - | 405 W/m² | - |
* Rain latest hour (hover to see other rain measurements)
** Current wind speed in m/s (hover to see current wind gust speed)